This is the latest recevied weather packets stored in our database for station/object K7LER. If no packets are shown the sender has not sent any weather packets the latest 10 day(s).
| Time | Temp. | Humidity | Pressure | Rain* | Wind** | Luminosity | Snow |
|---|---|---|---|---|---|---|---|
| 1777941047 | 25° C | 46% | 1009.5 hPa | 0 mm | - | 396 W/m² | - |
| 1777940734 | 25° C | 45% | 1009.5 hPa | 0 mm | - | 376 W/m² | - |
| 1777940434 | 25° C | 45% | 1009.5 hPa | 0 mm | - | 350 W/m² | - |
| 1777940145 | 25° C | 44% | 1009.5 hPa | 0 mm | - | 330 W/m² | - |
| 1777939835 | 25.56° C | 43% | 1009.5 hPa | 0 mm | - | 341 W/m² | - |
| 1777939536 | 25.56° C | 43% | 1009.6 hPa | 0 mm | - | 367 W/m² | - |
| 1777939245 | 25.56° C | 43% | 1009.6 hPa | 0 mm | - | 396 W/m² | - |
| 1777938934 | 25.56° C | 42% | 1009.6 hPa | 0 mm | - | 427 W/m² | - |
| 1777938634 | 25.56° C | 41% | 1009.4 hPa | 0 mm | - | 461 W/m² | - |
| 1777938342 | 25.56° C | 42% | 1009.6 hPa | 0 mm | - | 503 W/m² | - |
| 1777938033 | 25° C | 43% | 1009.6 hPa | 0 mm | - | 545 W/m² | - |
| 1777937735 | 25° C | 43% | 1009.7 hPa | 0 mm | - | 580 W/m² | - |
| 1777937443 | 25° C | 44% | 1009.6 hPa | 0 mm | - | 599 W/m² | - |
| 1777937135 | 25° C | 42% | 1009.4 hPa | 0 mm | - | 605 W/m² | - |
| 1777936835 | 25° C | 42% | 1009.5 hPa | 0 mm | - | 622 W/m² | - |
| 1777936539 | 25° C | 42% | 1009.3 hPa | 0 mm | - | 635 W/m² | - |
| 1777936234 | 25.56° C | 40% | 1009.3 hPa | 0 mm | - | 645 W/m² | - |
| 1777935934 | 25.56° C | 41% | 1009.4 hPa | 0 mm | - | 661 W/m² | - |
| 1777935646 | 25.56° C | 39% | 1009.4 hPa | 0 mm | - | 670 W/m² | - |
| 1777935333 | 25° C | 41% | 1009.4 hPa | 0 mm | - | 679 W/m² | - |
| 1777935034 | 25° C | 40% | 1009.6 hPa | 0 mm | - | 693 W/m² | - |
| 1777934742 | 25° C | 38% | 1009.7 hPa | 0 mm | - | 701 W/m² | - |
| 1777934436 | 25° C | 42% | 1009.8 hPa | 0 mm | - | 712 W/m² | - |
| 1777934135 | 25° C | 43% | 1009.8 hPa | 0 mm | - | 724 W/m² | - |
| 1777933843 | 25° C | 44% | 1009.8 hPa | 0 mm | - | 733 W/m² | - |
* Rain latest hour (hover to see other rain measurements)
** Current wind speed in m/s (hover to see current wind gust speed)